Weather History for West Palm Beach, FL

Change the Weather History Date:

Wednesday, January 9, 2013

  Actual Average Record
Temperature  
Mean Temperature 79 °F 66 °F  
Max Temperature 83 °F 74 °F 85 °F (1971)
Min Temperature 74 °F 57 °F 31 °F (1956)
Degree Days  
Heating Degree Days 0 3  
Month to date heating degree days 0 27  
Since 1 July heating degree days 43 98  
Cooling Degree Days 14 3  
Month to date cooling degree days 76 34  
Year to date cooling degree days 76 34  
Growing Degree Days 28 (Base 50)    
Moisture  
Dew Point 69 °F    
Average Humidity 79    
Maximum Humidity 93    
Minimum Humidity 65    
Precipitation  
Precipitation 0.08 in 0.11 in 2.98 in (2014)
Month to date precipitation 0.42 0.99  
Year to date precipitation 0.42 0.99  
Snow  
Snow 0.00 in - - ()
Month to date snowfall 0.0  
Since 1 July snowfall 0.0  
Snow Depth 0.00 in    
Sea Level Pressure  
Sea Level Pressure 30.23 in    
Wind  
Wind Speed 14 mph (ESE)    
Max Wind Speed 22 mph    
Max Gust Speed 31 mph    
Visibility 10 miles    
Events Rain    
T = Trace of Precipitation, MM = Missing Value Source: NWS Daily Summary

Daily Weather History Graph

Daily Weather History Graph

Search for Another Location

Airport:

Trip Planner

Search our weather history database for the weather conditions in past years. The results will help you decide how hot, cold, wet, or windy it might be!

Date:

Astronomy

Jan. 09, 2013 Rise Set
Actual Time 7:10 AM EST 5:45 PM EST
Civil Twilight 6:45 AM EST 6:10 PM EST
Nautical Twilight 6:16 AM EST 6:38 PM EST
Astronomical Twilight 5:48 AM EST 7:07 PM EST
Moon 4:47 AM EST (1/9) 3:45 PM EST (1/9)
Length of Visible Light 11h 24m
Length of Day
10h 34m
Waning Crescent, 6% of the Moon is Illuminated
Jan 9
Waning Crescent
Jan 11
New
Jan 18
First Quarter
Jan 26
Full
Feb 3
Last Quarter

Hourly Weather History & Observations

Time (EST) Temp. Heat Index Dew Point Humidity Pressure Visibility Wind Dir Wind Speed Gust Speed Precip Events Conditions
12:53 AM 73.9 °F - 71.1 °F 91% 30.17 in 10.0 mi ESE 6.9 mph - 0.04 in   Mostly Cloudy
1:53 AM 75.9 °F - 71.1 °F 85% 30.18 in 10.0 mi ESE 11.5 mph - N/A   Mostly Cloudy
2:53 AM 75.9 °F - 71.1 °F 85% 30.17 in 10.0 mi ESE 11.5 mph - N/A   Overcast
3:53 AM 75.0 °F - 70.0 °F 84% 30.19 in 9.0 mi ESE 12.7 mph 25.3 mph 0.03 in Rain Rain
4:30 AM 75.2 °F - 71.6 °F 89% 30.19 in 10.0 mi ESE 10.4 mph - 0.01 in   Mostly Cloudy
4:53 AM 75.0 °F - 70.0 °F 84% 30.19 in 10.0 mi SE 11.5 mph - 0.01 in   Overcast
5:05 AM 75.2 °F - 69.8 °F 83% 30.19 in 10.0 mi SE 12.7 mph - N/A   Overcast
5:53 AM 75.0 °F - 69.1 °F 82% 30.19 in 10.0 mi SE 12.7 mph - N/A   Mostly Cloudy
6:53 AM 75.0 °F - 69.1 °F 82% 30.21 in 10.0 mi SE 11.5 mph - N/A   Mostly Cloudy
7:53 AM 75.9 °F - 68.0 °F 76% 30.24 in 10.0 mi SE 11.5 mph - N/A   Scattered Clouds
8:53 AM 78.1 °F - 69.1 °F 74% 30.26 in 10.0 mi SE 12.7 mph - N/A   Scattered Clouds
9:53 AM 80.1 °F 82.9 °F 69.1 °F 69% 30.28 in 10.0 mi ESE 17.3 mph - N/A   Mostly Cloudy
10:53 AM 81.0 °F 84.1 °F 69.1 °F 67% 30.27 in 10.0 mi ESE 18.4 mph - N/A   Scattered Clouds
11:53 AM 81.0 °F 84.1 °F 69.1 °F 67% 30.25 in 10.0 mi ESE 15.0 mph - N/A   Scattered Clouds
12:15 PM 80.6 °F 83.9 °F 69.8 °F 70% 30.24 in 10.0 mi SE 19.6 mph - N/A   Mostly Cloudy
12:53 PM 82.0 °F 85.9 °F 70.0 °F 67% 30.23 in 10.0 mi SE 19.6 mph 24.2 mph N/A   Mostly Cloudy
1:00 PM 82.4 °F 86.3 °F 69.8 °F 66% 30.23 in 10.0 mi SE 18.4 mph - N/A   Scattered Clouds
1:12 PM 80.6 °F 83.9 °F 69.8 °F 70% 30.22 in 10.0 mi SE 17.3 mph - N/A   Scattered Clouds
1:53 PM 81.0 °F 84.4 °F 70.0 °F 69% 30.22 in 10.0 mi ESE 17.3 mph 23.0 mph N/A   Scattered Clouds
2:50 PM 80.6 °F 83.9 °F 69.8 °F 70% 30.22 in 10.0 mi ESE 18.4 mph - N/A   Mostly Cloudy
2:53 PM 81.0 °F 84.4 °F 70.0 °F 69% 30.22 in 10.0 mi ESE 18.4 mph - N/A   Mostly Cloudy
3:53 PM 80.1 °F 82.9 °F 69.1 °F 69% 30.22 in 10.0 mi ESE 13.8 mph - N/A   Mostly Cloudy
4:09 PM 80.6 °F 83.9 °F 69.8 °F 70% 30.22 in 10.0 mi ESE 15.0 mph - N/A   Scattered Clouds
4:53 PM 79.0 °F - 69.1 °F 72% 30.23 in 10.0 mi ESE 15.0 mph - N/A   Scattered Clouds
5:53 PM 78.1 °F - 69.1 °F 74% 30.25 in 10.0 mi East 11.5 mph - N/A   Scattered Clouds
6:53 PM 77.0 °F - 68.0 °F 74% 30.26 in 10.0 mi ESE 12.7 mph - N/A   Scattered Clouds
7:53 PM 77.0 °F - 68.0 °F 74% 30.27 in 10.0 mi East 13.8 mph - N/A   Scattered Clouds
8:53 PM 77.0 °F - 68.0 °F 74% 30.28 in 10.0 mi ESE 13.8 mph - N/A   Partly Cloudy
9:53 PM 77.0 °F - 66.9 °F 71% 30.28 in 10.0 mi ESE 16.1 mph - N/A   Scattered Clouds
10:53 PM 75.9 °F - 69.1 °F 79% 30.28 in 10.0 mi East 13.8 mph - N/A   Scattered Clouds
11:53 PM 75.9 °F - 70.0 °F 82% 30.28 in 10.0 mi East 16.1 mph - 0.00 in Rain Light Rain